GFSCGP_925_temp_000.txt.gz
Temp
20 19 20 21 22 23 23 23 22 24 25 21 20 21 22 22 22 22 22 23 22 21 21 22 20 19 18 16 14 12 10 10 9 9 8 7 7 6 7 7 6 7 7 7
20 19 22 23 23 22 21 21 22 24 23 21 20 20 21 21 22 23 22 22 21 21 22 16 17 18 17 15 13 12 10 9 9 8 8 7 7 6 7 6 6 6 6 6
21 22 22 22 21 22 21 20 21 21 22 19 19 18 18 20 21 21 21 21 20 19 19 15 14 15 15 13 13 11 10 9 9 8 8 8 7 7 6 5 5 5 5 5
20 22 22 21 21 21 20 22 21 21 19 17 21 20 20 22 21 20 21 21 19 18 19 15 13 13 13 13 12 11 10 9 9 8 8 8 7 5 6 6 6 5 5 5
21 20 19 19 21 21 20 19 19 19 18 17 19 17 20 21 20 21 21 22 21 20 17 15 13 13 13 13 12 11 10 9 8 8 8 8 7 7 7 6 5 4 4 4
18 17 18 20 17 18 18 19 18 18 16 15 18 19 20 20 21 22 21 21 20 16 14 14 14 14 13 12 11 10 10 9 9 8 7 7 7 7 7 6 5 4 3 3
19 18 17 17 17 16 17 18 14 14 13 18 20 18 23 24 22 21 21 21 20 15 13 13 11 10 11 10 10 9 9 8 8 7 6 6 6 7 7 6 5 3 3 3
20 20 17 16 18 19 15 17 14 15 18 20 13 17 20 22 23 22 21 21 17 15 13 12 11 11 11 10 9 9 8 8 8 7 6 6 6 6 6 6 5 4 4 3
19 20 16 16 18 19 17 15 19 15 11 14 20 20 21 21 21 20 20 19 16 15 14 13 12 11 11 10 8 8 8 7 7 6 5 5 5 5 5 5 5 4 4 3
21 20 19 14 15 16 16 16 16 14 14 13 19 19 22 23 23 20 19 18 17 15 14 12 11 10 11 10 9 8 7 6 7 6 4 4 4 4 4 4 4 3 3 3
19 19 18 14 13 16 13 14 15 17 15 15 18 21 22 21 21 19 19 19 19 16 14 13 11 12 12 11 9 7 7 7 6 5 4 3 3 3 3 3 3 3 3 2
17 17 14 18 19 17 17 17 18 17 17 14 18 20 23 21 19 18 19 20 20 17 15 14 12 10 10 10 8 7 6 6 5 5 3 3 2 2 2 2 2 1 1 1
14 13 12 15 17 15 15 17 18 18 17 18 16 19 23 23 22 19 18 18 17 17 15 14 12 10 10 9 8 7 6 5 5 4 3 2 1 1 1 1 0 -0 -0 -1
13 12 12 14 16 17 16 15 15 17 16 17 17 18 20 21 21 22 21 20 16 15 16 14 13 10 10 10 8 7 6 5 4 3 1 0 -1 -1 -1 -1 -1 -1 -2 -3
12 10 10 12 14 13 13 15 15 16 15 15 17 18 19 20 21 21 21 19 19 18 18 15 13 11 10 8 8 8 6 5 4 2 0 -1 -2 -2 -2 -2 -2 -3 -4 -4
11 11 9 10 10 11 12 14 14 14 15 16 17 16 19 19 20 20 20 20 19 18 18 17 13 10 7 7 8 7 6 4 3 0 -1 -2 -3 -3 -3 -3 -4 -5 -5 -5
9 9 10 11 11 10 10 11 13 13 15 15 15 17 19 19 19 19 20 20 19 17 17 13 11 10 7 7 8 6 5 3 1 -1 -2 -3 -4 -4 -4 -5 -6 -6 -6 -7
11 10 10 11 12 11 12 14 13 13 15 15 15 16 17 18 19 19 17 16 16 17 16 14 9 9 10 12 8 6 4 1 -1 -3 -4 -5 -5 -6 -6 -7 -7 -8 -8 -8
13 12 11 11 11 13 14 14 13 13 13 15 15 16 16 17 16 16 17 17 17 16 16 14 10 11 12 9 7 4 1 -2 -3 -4 -6 -7 -6 -8 -9 -9 -9 -8 -8 -9
11 11 11 11 12 12 14 15 15 16 13 15 16 16 15 15 13 15 16 16 12 11 11 9 9 10 8 6 4 0 -2 -4 -4 -5 -6 -7 -8 -8 -9 -8 -9 -9 -9 -10
9 9 10 11 11 11 12 13 13 11 14 16 16 16 16 15 15 16 14 11 10 10 10 9 7 5 5 4 1 -1 -4 -4 -4 -6 -8 -9 -9 -9 -8 -9 -10 -10 -11 -10
9 9 10 11 11 11 8 11 12 9 8 7 7 8 8 8 9 9 9 8 8 8 7 5 4 2 3 2 -1 -3 -4 -4 -6 -8 -10 -10 -11 -11 -10 -11 -11 -11 -11 -12
6 4 4 5 7 7 7 5 6 7 4 4 5 5 5 6 7 7 7 6 6 6 5 3 -0 -1 0 -0 -1 -4 -4 -6 -8 -10 -12 -13 -12 -12 -11 -12 -12 -13 -13 -13
4 6 4 3 6 5 7 8 8 7 5 5 5 5 6 6 6 5 6 7 5 2 3 -2 -4 -5 -5 -2 -3 -3 -5 -7 -10 -12 -14 -14 -14 -15 -14 -13 -13 -14 -14 -14
2 3 2 3 5 6 7 7 6 6 4 3 3 4 5 5 5 5 6 6 5 3 -2 -2 -3 -2 -2 -4 -5 -4 -7 -9 -12 -13 -14 -15 -15 -15 -16 -14 -14 -13 -13 -12
3 3 3 3 5 5 4 3 3 -1 -1 -1 0 0 1 2 3 4 4 4 4 5 3 -3 -3 -2 -3 -5 -6 -6 -8 -10 -12 -12 -14 -15 -15 -16 -15 -15 -14 -13 -13 -13

GFSCGP_925_temp_003.txt.gz
Temp
18 17 17 20 17 20 20 19 18 21 21 20 21 19 21 20 17 17 18 19 21 19 19 20 19 18 16 15 14 13 12 12 11 10 9 8 8 8 8 8 9 9 9 9
18 17 19 20 18 18 18 18 18 21 20 18 19 20 20 17 19 20 20 20 21 18 17 17 16 15 14 13 12 11 12 11 10 10 9 8 8 7 8 7 7 8 8 8
20 19 19 19 19 19 19 19 20 19 20 18 17 17 18 18 17 19 20 20 20 17 16 14 11 12 13 11 11 11 11 11 10 10 9 8 8 7 6 6 6 7 7 7
17 19 20 18 18 19 20 18 19 18 18 19 18 19 19 18 17 18 19 20 18 14 15 13 11 9 11 11 11 11 11 11 9 9 8 8 6 5 5 6 6 6 6 6
19 21 17 18 20 18 20 19 18 18 16 16 17 16 21 18 18 20 21 21 20 15 15 13 12 13 11 11 11 10 10 9 8 9 8 7 6 6 7 5 6 5 5 5
16 17 19 18 17 18 17 18 18 16 14 16 16 17 20 18 19 20 21 21 21 16 14 13 13 12 10 10 10 10 9 9 9 8 7 7 6 6 6 5 5 4 4 4
16 16 16 17 18 16 16 16 13 13 11 17 17 15 21 21 19 20 21 21 20 15 12 11 10 9 9 9 9 9 9 7 8 8 7 7 7 7 7 7 5 4 4 3
17 19 15 15 18 16 13 16 13 14 16 20 10 15 20 19 20 19 20 22 19 13 12 11 10 9 9 9 9 9 8 8 8 7 7 7 7 7 7 7 6 5 5 5
16 18 16 14 16 17 15 15 17 14 5 11 20 18 20 20 19 18 19 17 16 13 11 11 9 9 9 8 8 9 8 8 7 7 6 6 6 6 6 6 6 6 6 6
19 18 18 15 16 16 16 15 15 12 14 13 19 17 21 21 22 21 17 16 15 13 12 10 9 8 9 9 9 9 8 7 7 7 6 5 5 6 5 5 6 5 6 5
15 17 18 15 14 15 14 15 15 15 13 18 18 20 22 21 22 21 17 15 14 14 12 11 10 10 10 9 9 8 8 7 7 7 6 5 4 5 5 5 5 5 5 4
14 14 12 15 15 15 16 16 16 17 16 13 16 19 21 18 19 15 19 18 17 16 14 11 10 8 8 8 8 8 7 7 7 6 5 4 4 3 3 3 3 4 4 3
12 10 11 12 15 14 16 15 15 16 13 14 13 16 21 20 20 17 18 16 15 17 16 12 10 9 9 9 8 7 7 7 5 5 4 3 3 3 2 2 3 3 3 2
13 10 10 13 16 16 14 14 14 16 15 16 15 16 18 19 20 20 20 21 21 17 17 14 12 10 8 9 8 7 7 7 5 4 3 2 2 2 1 1 2 2 2 1
13 11 10 11 13 13 13 13 14 14 15 14 16 16 17 18 19 19 20 20 18 15 15 15 14 12 9 9 8 8 7 5 5 3 2 1 1 1 0 -0 1 2 1 0
13 12 12 11 11 10 10 13 13 13 14 14 15 16 18 18 19 18 19 19 18 18 18 16 13 11 9 8 9 8 7 5 4 2 1 1 -0 -1 -1 -1 0 0 -1 -1
11 10 11 12 12 12 11 12 13 13 14 14 13 15 17 18 18 18 18 18 18 18 18 15 13 11 9 8 9 7 7 5 3 1 0 -1 -2 -3 -3 -1 -1 -3 -3 -3
10 9 9 11 11 11 11 12 12 12 14 14 15 15 17 17 17 18 18 17 17 17 17 12 9 9 10 13 11 10 7 4 2 -0 -1 -3 -4 -4 -5 -4 -4 -5 -5 -5
10 10 10 11 11 12 14 12 13 12 13 14 14 14 15 15 15 15 16 13 14 14 15 15 10 11 11 12 12 7 3 1 0 -1 -3 -4 -4 -6 -6 -7 -7 -7 -8 -8
9 10 11 11 11 11 14 12 13 14 12 5 5 5 6 7 10 10 8 7 7 7 8 7 8 9 10 10 8 3 0 -1 -1 -2 -3 -5 -5 -6 -7 -7 -8 -9 -8 -9
9 9 9 10 10 10 6 6 8 10 6 4 3 4 3 5 5 5 5 6 6 5 4 7 7 4 6 6 4 1 -1 -2 -0 -2 -3 -5 -6 -7 -7 -9 -9 -10 -10 -10
5 5 6 8 9 9 5 5 3 3 3 3 3 3 3 4 4 5 5 5 6 5 5 5 3 3 4 4 3 -1 -2 -0 -1 -3 -5 -7 -8 -8 -9 -10 -11 -11 -11 -12
3 2 2 2 3 3 5 5 6 3 2 2 2 2 2 2 3 3 4 4 4 5 4 5 3 0 3 3 3 -1 -1 -1 -3 -5 -8 -9 -9 -10 -10 -11 -12 -13 -13 -13
1 3 3 1 4 4 5 5 5 3 1 0 -1 -1 0 1 1 1 1 2 3 3 3 4 3 3 3 4 1 1 0 -2 -4 -8 -10 -11 -12 -13 -12 -12 -13 -12 -13 -12
1 2 -0 1 3 3 4 4 1 0 -1 -1 -2 -2 -2 -3 -3 -2 -2 -1 0 1 2 3 2 2 2 4 3 1 -1 -3 -7 -9 -11 -12 -13 -13 -14 -13 -13 -13 -12 -11
2 2 2 1 3 1 1 -0 -1 -4 -4 -5 -5 -5 -5 -5 -5 -4 -4 -4 -3 -3 -2 -0 1 -0 1 2 1 0 -3 -5 -8 -10 -12 -13 -13 -14 -14 -13 -13 -12 -12 -11

GFSCGP_925_temp_006.txt.gz
Temp
17 16 16 19 16 20 18 17 17 18 20 19 17 18 20 21 18 15 17 19 20 20 21 21 20 21 17 16 14 13 12 12 12 12 11 10 9 9 9 9 10 10 10 10
16 15 18 19 17 16 17 18 18 20 18 16 18 19 20 19 21 21 20 20 19 19 21 15 17 18 16 15 13 12 12 12 11 11 9 9 8 9 9 9 8 9 9 9
19 19 17 17 17 17 17 17 18 18 18 16 15 18 17 17 18 20 16 18 20 21 22 16 13 14 13 12 12 11 11 11 11 10 9 9 7 7 7 7 7 7 8 8
15 17 18 15 16 18 19 17 18 17 17 18 18 19 19 18 18 18 17 18 18 19 18 16 12 9 11 11 11 10 10 10 10 10 9 8 8 7 6 6 6 7 7 7
18 19 17 16 18 16 19 18 17 17 15 14 15 14 20 18 17 19 21 19 20 21 15 14 11 12 11 11 10 10 10 10 9 9 9 8 7 7 7 6 6 6 6 6
15 16 17 16 16 16 17 18 16 12 13 16 16 16 20 16 19 19 20 20 20 21 16 13 12 11 10 10 9 9 9 9 9 9 8 8 8 7 7 6 6 6 5 5
16 15 15 16 17 16 17 16 13 13 11 15 16 13 22 20 21 19 21 21 20 20 14 12 10 8 7 8 9 8 8 8 8 8 8 9 8 7 7 6 5 4 4 4
16 18 15 14 16 16 14 16 16 13 16 20 10 15 19 18 19 19 17 18 18 16 13 12 9 9 8 8 8 8 8 7 7 8 8 7 7 7 6 7 6 5 4 4
15 17 16 15 16 17 15 14 17 13 4 9 18 18 20 19 19 18 17 16 16 15 13 11 9 7 8 7 8 8 8 8 8 7 6 6 6 6 6 6 6 6 5 4
16 16 17 16 15 15 15 15 14 12 14 13 16 17 20 19 20 17 17 18 16 13 13 11 9 8 8 8 8 9 9 8 7 6 7 6 6 6 5 6 6 5 5 4
15 14 15 15 13 15 14 14 14 15 13 17 17 18 17 18 18 17 17 18 13 13 12 11 10 9 10 9 9 8 8 8 8 8 7 6 6 6 5 5 5 6 5 5
14 13 11 13 14 13 14 16 17 16 15 12 14 16 19 19 18 19 18 18 17 13 12 11 10 9 8 8 8 8 7 8 9 8 6 6 5 5 5 4 5 5 4 5
13 12 13 12 13 13 13 14 15 15 15 16 14 15 20 20 19 18 17 18 16 15 13 13 11 10 10 9 8 7 7 8 7 6 6 5 4 3 3 3 4 4 3 4
13 13 13 14 16 15 14 13 13 15 15 16 16 17 18 19 19 20 19 18 16 18 16 15 15 13 10 10 9 8 7 8 7 6 5 4 3 3 3 3 2 3 3 3
12 11 11 12 14 14 15 15 15 15 16 15 16 17 18 19 19 19 19 19 17 15 15 17 15 15 13 8 9 8 8 8 7 5 3 3 3 2 2 1 2 1 2 2
8 10 11 11 11 11 11 13 14 14 15 15 15 15 17 18 18 18 18 18 18 17 15 15 13 13 10 10 11 10 8 8 6 4 3 3 2 1 1 -0 -0 0 0 0
8 8 9 11 9 9 10 12 11 13 13 14 13 14 11 10 11 14 15 8 7 8 8 8 8 8 9 12 12 9 10 9 5 3 2 2 1 -1 -1 -2 -2 -1 -1 -1
8 8 9 9 10 10 12 11 12 11 13 13 10 6 4 4 5 6 5 5 5 6 6 7 6 7 7 8 9 10 9 7 3 2 1 0 -1 -2 -3 -3 -3 -3 -3 -3
9 8 8 9 9 12 12 9 7 7 8 3 4 3 3 3 4 7 5 5 4 5 6 6 6 5 5 5 5 6 6 5 2 1 0 -1 -2 -3 -4 -5 -4 -5 -5 -6
7 7 7 7 6 7 4 3 3 5 8 1 2 2 2 2 2 3 4 4 4 5 5 4 4 4 4 4 3 2 1 0 -0 -0 -0 -2 -3 -4 -5 -5 -5 -6 -6 -7
-3 -2 2 4 5 6 4 4 6 5 2 2 1 2 2 2 2 3 3 3 3 3 4 4 3 3 3 2 4 2 0 -1 -0 0 -0 -2 -3 -4 -5 -5 -6 -8 -8 -9
2 1 -0 1 0 3 3 3 2 3 4 2 2 2 1 1 1 2 3 2 1 1 2 2 1 2 2 2 2 1 1 3 0 0 -1 -3 -4 -5 -6 -6 -8 -9 -9 -10
-1 0 -2 0 1 3 4 3 4 2 0 0 -0 -1 -1 -1 -0 -0 -1 -1 -1 -1 -1 -1 -0 0 1 2 1 -1 1 2 -0 -2 -4 -6 -7 -7 -8 -9 -10 -11 -11 -10
-0 2 -0 -1 2 2 3 3 3 1 -0 -1 -1 -3 -3 -3 -3 -3 -3 -3 -3 -3 -3 -3 -3 -2 -2 -1 -0 -0 -0 -0 -1 -3 -6 -7 -8 -9 -9 -10 -11 -10 -11 -10
-0 1 -0 0 2 2 3 2 -0 -0 -2 -2 -3 -4 -4 -5 -4 -4 -5 -6 -5 -5 -6 -6 -6 -6 -6 -5 -3 -1 -0 -2 -5 -6 -7 -9 -10 -11 -11 -11 -11 -10 -10 -9
2 1 1 1 3 3 3 2 -1 -3 -3 -4 -5 -5 -5 -6 -6 -6 -7 -6 -7 -8 -8 -9 -9 -9 -8 -7 -7 -6 -4 -3 -5 -7 -9 -10 -10 -11 -11 -11 -12 -10 -10 -10

GFSCGP_925_temp_009.txt.gz
Temp
16 15 15 18 15 19 17 15 15 17 18 17 17 18 18 20 19 20 16 18 19 19 21 22 21 20 19 17 15 15 13 12 10 10 9 9 10 11 11 11 11 10 10 10
15 14 17 17 17 15 15 16 16 18 18 16 17 17 18 18 19 20 21 21 21 20 20 19 17 18 17 18 15 13 12 11 10 10 9 9 8 9 10 10 10 10 9 9
18 18 16 16 16 16 15 15 17 17 17 15 14 18 18 16 16 19 19 20 20 19 19 20 13 14 16 15 14 13 12 11 10 10 9 9 8 7 7 8 9 8 9 9
14 16 17 15 15 16 18 16 16 16 15 16 17 18 20 20 20 19 18 19 18 18 18 17 14 11 15 16 14 12 11 10 10 9 9 9 9 7 7 7 8 8 8 8
17 17 15 15 16 15 17 18 16 16 14 13 14 13 19 18 18 17 18 17 18 18 17 18 13 13 15 14 12 11 10 9 9 9 10 9 8 8 9 7 7 7 7 7
14 15 16 16 15 14 16 17 15 11 12 13 15 15 18 16 19 19 19 18 18 17 19 14 13 14 11 11 10 10 9 9 9 9 9 8 8 8 8 6 6 6 7 6
15 14 15 16 17 15 16 15 12 12 10 14 15 13 21 21 22 18 20 17 17 15 15 17 12 9 7 7 8 8 8 7 8 8 8 8 9 8 8 7 5 5 5 5
15 17 14 14 16 15 13 14 12 12 14 18 10 14 21 19 18 18 16 16 14 14 14 11 12 9 7 7 7 7 7 7 8 8 7 8 8 8 7 7 6 6 6 5
13 14 14 13 15 16 14 13 16 13 6 10 17 16 19 17 20 19 16 14 15 16 14 11 9 8 8 7 7 7 7 8 7 7 7 7 7 7 7 7 6 6 7 6
16 15 16 14 15 15 15 15 13 11 12 14 15 17 18 19 20 19 16 16 15 14 12 10 9 8 8 9 9 8 8 8 8 8 7 6 7 7 7 7 6 6 6 6
14 13 14 15 13 16 12 13 13 14 13 16 16 16 20 19 17 16 15 15 15 14 15 12 10 10 10 9 9 9 9 9 9 8 7 7 7 7 6 6 6 6 6 6
13 11 11 13 13 12 13 13 13 13 14 15 16 17 19 20 18 16 15 17 15 14 15 13 11 11 10 10 10 10 10 9 9 8 7 7 6 5 4 5 6 6 5 5
12 11 12 11 11 10 10 12 13 14 14 13 13 16 19 19 19 19 16 14 14 14 15 15 12 12 10 12 12 10 8 9 8 7 6 5 5 4 5 5 4 4 4 4
11 12 12 12 11 13 12 13 13 13 13 14 15 16 17 18 18 19 19 15 13 9 7 7 7 7 7 8 8 9 9 9 9 7 6 5 4 5 5 4 3 3 3 3
11 10 10 11 11 10 10 10 10 12 14 13 14 15 16 17 17 11 10 8 7 6 6 6 6 6 6 6 6 7 8 8 8 7 5 4 4 3 3 3 3 2 2 2
8 8 9 9 10 10 10 10 9 9 9 10 11 12 10 4 3 5 4 5 5 5 6 6 6 6 5 5 5 5 5 6 6 6 5 5 4 3 2 2 1 1 0 -0
6 7 7 7 9 8 8 9 11 12 11 8 8 3 2 3 2 3 2 4 4 5 5 5 5 5 4 4 4 4 3 3 3 3 5 4 4 2 1 1 -0 -1 -2 -2
6 5 5 6 6 5 9 9 7 7 3 3 3 2 2 2 3 4 4 4 3 3 4 4 4 3 3 3 2 2 1 2 2 2 2 2 2 1 0 -1 -2 -2 -2 -2
5 6 4 0 0 6 8 4 2 3 3 2 2 2 2 2 3 5 4 4 3 3 3 3 2 2 2 1 1 0 0 1 1 1 0 0 -0 -1 -2 -3 -3 -3 -3 -4
5 6 5 -2 2 2 3 2 3 4 4 2 1 2 0 0 1 2 3 2 2 1 0 0 0 1 1 0 0 0 -0 0 0 -1 2 1 -0 -1 -3 -3 -4 -4 -4 -5
-5 -6 -4 -7 -4 -1 -0 2 3 -1 1 2 1 0 -0 1 2 2 1 1 0 -1 -2 -2 -2 -2 -1 -1 -1 -1 -0 -0 -1 -0 -1 -0 -1 -2 -3 -4 -4 -4 -5 -6
-0 -5 -6 -8 -7 -2 2 3 2 1 2 2 1 1 0 -0 -0 0 -0 -1 -1 -2 -2 -2 -3 -3 -3 -3 -3 -3 -2 -1 -1 -1 -2 -3 -3 -3 -4 -5 -6 -6 -7 -7
-2 -0 -3 -2 -2 2 3 3 2 2 1 -0 0 -0 -1 -2 -2 -1 -3 -3 -3 -3 -3 -4 -5 -6 -5 -6 -6 -6 -6 -5 -3 -2 -3 -3 -5 -5 -5 -6 -7 -8 -8 -8
-0 2 -0 -2 3 2 2 2 2 2 1 0 -1 -2 -3 -3 -3 -3 -3 -3 -4 -4 -5 -5 -7 -7 -7 -8 -8 -8 -8 -7 -7 -5 -4 -5 -6 -7 -7 -8 -8 -9 -10 -9
1 -0 -1 -0 2 2 2 2 2 1 -1 -2 -3 -3 -4 -4 -4 -4 -5 -6 -6 -6 -6 -7 -8 -9 -9 -10 -10 -10 -10 -10 -9 -8 -5 -6 -7 -8 -9 -9 -9 -9 -9 -8
2 1 1 0 3 2 2 3 1 -1 -2 -4 -5 -5 -5 -5 -6 -6 -7 -7 -7 -8 -8 -9 -11 -11 -12 -12 -12 -12 -13 -13 -12 -11 -9 -6 -7 -9 -9 -9 -10 -9 -9 -9

GFSCGP_925_temp_012.txt.gz
Temp
16 14 15 17 15 18 17 15 14 15 17 16 18 18 18 18 17 19 20 19 19 18 19 20 20 21 20 18 16 15 13 12 11 9 8 8 9 10 11 12 12 12 11 11
14 13 15 17 16 15 14 15 16 17 17 15 15 16 18 18 19 19 19 20 20 19 19 19 19 18 18 20 17 14 13 12 11 9 8 9 8 8 10 11 11 11 11 11
16 17 15 15 16 16 14 14 16 16 15 14 13 16 15 16 16 18 18 18 17 17 18 18 15 16 17 16 16 15 14 12 10 9 8 9 8 8 7 7 9 10 10 10
14 15 16 14 15 15 17 15 15 15 14 14 16 16 17 17 18 17 17 16 15 16 15 14 13 12 16 19 16 14 12 11 10 10 8 8 8 8 8 7 9 10 10 10
16 16 15 14 15 14 16 17 15 15 13 12 14 13 19 17 17 17 17 16 16 15 14 14 14 14 15 15 15 14 12 11 9 9 8 8 8 8 9 8 7 8 8 8
13 14 15 15 14 14 15 16 14 10 11 12 14 14 17 16 18 21 19 18 17 16 15 14 14 13 13 11 10 11 10 9 9 8 8 8 8 8 8 7 6 6 6 7
15 14 14 15 16 14 15 14 12 12 9 14 13 12 19 20 19 19 18 17 17 14 13 11 12 9 9 8 7 7 8 7 8 8 7 8 8 8 9 8 6 4 5 5
14 16 15 13 15 15 12 13 12 13 12 17 9 14 19 17 18 16 16 16 14 13 12 11 10 7 8 7 6 7 7 7 8 8 7 7 8 7 8 8 7 6 6 7
13 13 14 13 14 15 13 13 14 14 9 10 17 16 18 17 16 17 17 15 14 13 13 13 11 9 10 8 8 8 8 8 8 8 7 7 7 7 7 7 7 8 8 7
16 15 15 15 13 13 14 14 14 11 13 11 14 15 17 18 18 17 17 16 12 14 17 14 11 10 10 8 8 7 8 8 8 8 8 8 7 8 7 7 8 8 8 7
14 13 13 13 12 13 13 13 12 13 13 13 14 15 19 18 17 15 14 14 14 16 12 9 8 8 7 8 8 8 8 7 7 6 6 6 6 6 6 6 7 7 7 7
13 11 11 12 12 13 13 15 14 13 13 11 14 14 16 17 18 18 13 10 6 6 6 6 6 6 6 6 6 6 7 7 8 7 7 7 6 5 5 5 5 6 6 6
12 11 11 11 12 9 10 12 13 13 12 11 11 13 16 17 16 5 6 6 6 6 6 6 6 6 5 5 5 5 5 5 6 6 7 6 6 5 5 5 5 4 4 5
10 9 10 11 13 12 11 12 11 10 11 11 11 11 13 12 9 5 5 5 5 5 5 5 5 5 5 4 4 4 4 4 3 3 4 5 5 5 5 4 4 3 3 3
9 10 10 11 10 8 8 8 9 9 10 9 10 11 9 4 3 3 3 4 4 4 4 4 4 4 3 3 3 3 3 2 1 2 2 3 2 3 3 3 4 3 2 3
7 7 7 7 8 8 8 9 8 9 9 9 9 8 3 3 3 3 2 1 3 3 3 4 4 3 3 2 2 1 1 1 0 0 1 1 2 2 3 3 3 2 2 1
6 6 6 6 7 6 6 7 8 9 10 6 6 2 1 1 3 4 3 2 4 2 2 3 3 2 2 2 1 1 0 -0 -1 -0 -0 -0 0 1 1 1 1 0 0 -0
5 5 4 6 4 5 7 6 5 4 4 3 2 0 0 1 2 3 3 3 3 3 2 2 1 1 0 -0 -0 -0 -1 -1 -1 -1 -1 -1 -1 -1 0 0 -0 -1 -1 -1
5 4 1 1 -2 4 7 3 3 3 2 1 2 3 2 1 0 2 3 2 1 1 1 0 -1 -2 -2 -2 -2 -2 -3 -2 -1 -1 -2 -2 -2 -2 -1 -2 -1 -2 -2 -3
4 4 4 -3 2 -3 3 2 3 3 1 -1 -1 0 -0 0 -1 1 2 0 -0 -0 -1 -2 -2 -3 -3 -3 -3 -4 -4 -4 -3 -3 -4 -4 -3 -3 -2 -2 -2 -3 -3 -3
-6 -8 -0 -2 -3 -3 -1 1 2 -2 -1 -3 -2 -1 -1 -1 -0 0 0 -1 -1 -1 -2 -2 -2 -3 -3 -3 -4 -5 -5 -5 -5 -6 -7 -4 -4 -3 -3 -3 -3 -4 -4 -4
0 -5 -8 -10 -7 -3 2 2 1 1 1 0 0 1 0 0 -0 -0 -1 -2 -2 -3 -3 -3 -3 -4 -4 -5 -6 -6 -6 -6 -7 -8 -7 -7 -7 -5 -5 -4 -5 -5 -5 -5
-2 -1 -4 -3 -3 1 2 1 3 1 -1 -0 0 1 -0 -1 -1 -1 -2 -2 -3 -3 -3 -4 -6 -6 -6 -7 -8 -8 -8 -9 -9 -9 -9 -9 -8 -7 -6 -6 -7 -7 -7 -7
-0 1 1 1 2 2 2 3 1 1 2 2 1 0 -2 -2 -2 -2 -2 -3 -3 -4 -5 -6 -7 -7 -8 -8 -9 -9 -10 -11 -11 -12 -12 -11 -11 -9 -6 -7 -7 -8 -8 -8
1 -1 -2 0 2 2 2 2 2 2 1 -0 -1 -2 -3 -4 -3 -3 -4 -5 -5 -6 -6 -7 -8 -8 -9 -9 -10 -11 -12 -13 -14 -14 -13 -13 -12 -10 -8 -7 -7 -8 -7 -7
1 1 1 0 2 2 3 3 2 1 -0 -2 -4 -5 -5 -5 -6 -6 -7 -7 -7 -8 -8 -9 -10 -10 -11 -12 -13 -13 -14 -15 -15 -15 -15 -14 -13 -12 -10 -8 -7 -8 -7 -8

GFSCGP_925_temp_015.txt.gz
Temp
15 14 14 16 14 17 17 15 14 15 16 16 18 18 18 18 17 18 19 20 19 19 19 19 19 20 20 19 18 17 15 14 11 10 8 8 8 9 10 11 13 13 12 12
13 13 15 16 15 15 14 14 15 16 16 14 15 17 18 18 19 19 19 19 18 17 18 17 17 18 18 19 18 16 15 13 11 10 9 10 8 7 8 9 10 11 12 12
15 16 14 14 15 15 13 14 16 15 14 14 13 15 15 18 15 16 17 16 16 15 15 16 15 15 16 16 17 16 14 13 11 10 8 8 9 8 6 7 8 10 11 12
13 14 15 14 15 14 15 14 14 14 14 14 15 16 16 18 18 17 16 16 15 15 16 15 13 14 13 13 14 13 13 11 10 9 8 8 8 8 6 6 6 8 10 11
16 15 14 14 14 14 15 16 15 14 13 12 13 13 15 17 17 18 19 19 19 17 13 13 13 13 12 11 11 11 10 9 9 8 8 7 8 8 9 7 6 6 7 8
13 13 14 15 14 14 15 15 12 10 11 12 14 14 16 16 18 19 19 19 17 15 13 15 13 12 10 9 8 9 8 8 8 8 7 7 7 7 7 7 6 6 6 7
15 13 14 15 16 14 15 14 13 13 10 14 12 12 17 18 18 19 19 17 14 12 12 12 12 9 8 6 7 7 7 7 7 7 7 7 7 7 8 7 6 4 4 6
14 16 14 13 15 15 12 14 15 12 13 17 8 14 18 16 18 16 14 14 13 12 11 9 8 7 6 5 5 7 7 6 6 7 7 6 6 6 7 7 7 6 6 6
12 13 14 12 13 15 13 13 15 13 9 11 16 15 18 16 16 15 14 11 8 7 6 6 6 5 5 5 5 5 6 6 6 6 6 6 6 6 6 6 7 7 7 6
14 13 14 14 14 13 14 14 13 11 12 13 14 13 16 16 14 12 7 5 6 6 6 5 5 5 5 5 4 5 5 4 5 5 5 6 6 6 5 6 7 7 7 6
12 11 13 13 12 13 12 12 13 13 12 12 14 14 15 12 7 6 6 6 5 5 5 5 5 5 4 4 4 4 3 3 3 3 4 4 5 5 5 5 5 6 6 6
12 11 11 13 12 12 13 14 13 13 12 10 12 13 16 9 7 6 5 5 5 5 5 5 5 4 4 4 3 3 2 2 2 3 3 3 3 3 4 4 5 5 5 6
10 11 11 11 12 10 11 11 12 11 9 11 11 12 12 11 6 5 4 4 4 4 5 5 5 4 3 3 3 2 2 2 1 1 2 3 2 2 2 2 3 3 4 4
9 9 11 11 13 10 10 9 10 9 11 11 11 11 12 8 4 3 3 3 3 3 4 4 4 3 3 3 2 1 1 1 0 0 -0 0 1 1 2 2 2 2 3 2
9 9 9 9 10 7 8 7 8 7 8 8 9 9 11 5 3 3 3 3 3 3 3 3 3 3 2 2 1 1 1 -0 -1 -1 -1 -1 -1 -1 1 1 1 1 1 1
6 7 5 6 7 8 8 8 8 8 8 8 8 8 3 2 3 3 3 2 3 3 3 2 2 2 1 0 -0 -1 -1 -1 -2 -2 -2 -1 -2 -2 -2 -1 1 1 0 -0
5 5 7 7 7 5 4 6 7 8 8 7 7 3 -0 0 2 2 2 2 2 2 2 1 1 0 -0 -1 -2 -2 -2 -2 -3 -3 -2 -2 -3 -3 -3 -3 -2 -0 -0 -1
5 4 5 5 0 5 7 3 5 5 3 1 1 0 1 2 2 2 2 2 2 1 1 1 -0 -1 -1 -2 -2 -2 -3 -3 -4 -4 -3 -3 -4 -5 -4 -4 -3 -3 -2 -2
4 4 1 3 4 5 6 4 4 4 2 -0 -0 0 2 2 0 -0 1 1 1 -0 -0 -0 -0 -1 -2 -2 -2 -3 -4 -4 -5 -5 -5 -6 -6 -6 -5 -5 -5 -4 -4 -4
3 3 4 -2 0 -3 3 3 2 2 -0 -2 -3 -2 -1 0 -1 1 1 1 -0 -0 -0 -1 -1 -2 -3 -3 -3 -4 -5 -5 -6 -5 -6 -7 -8 -7 -7 -6 -6 -5 -5 -5
-7 -6 2 2 2 -1 -1 0 1 -2 -0 -3 -3 -2 -2 -1 1 2 0 -1 -1 -1 -1 -2 -2 -3 -3 -4 -4 -5 -6 -6 -6 -7 -8 -9 -9 -9 -9 -8 -7 -6 -6 -5
-0 -5 -9 -12 -6 -1 1 2 1 0 0 -0 -1 0 0 1 1 0 0 -0 -2 -3 -2 -2 -3 -3 -3 -4 -6 -7 -7 -7 -8 -8 -10 -10 -11 -11 -11 -10 -9 -7 -7 -7
-2 -1 -3 -2 -2 1 1 1 2 2 0 1 -0 0 -1 -0 -0 0 -1 -2 -3 -3 -3 -3 -4 -5 -6 -6 -7 -8 -8 -9 -10 -11 -11 -12 -12 -13 -12 -12 -10 -9 -7 -7
-1 -1 0 1 2 1 3 3 3 1 1 1 0 -1 -1 -1 -1 -1 -2 -3 -3 -4 -5 -5 -6 -7 -7 -7 -8 -9 -10 -11 -12 -13 -13 -14 -14 -14 -14 -13 -11 -10 -8 -7
1 -1 -1 0 2 2 2 2 2 2 1 -0 -1 -1 -2 -3 -3 -4 -4 -5 -5 -6 -7 -8 -8 -9 -9 -9 -10 -11 -12 -13 -14 -15 -15 -15 -15 -15 -15 -14 -12 -11 -9 -8
1 1 0 0 2 2 2 3 1 1 -0 -4 -5 -5 -6 -6 -6 -7 -7 -8 -8 -9 -10 -11 -11 -12 -12 -13 -14 -14 -15 -16 -16 -17 -17 -17 -17 -16 -16 -15 -14 -13 -10 -8

GFSCGP_925_temp_021.txt.gz
Temp
21 21 22 24 25 24 24 23 24 24 25 24 24 23 24 25 26 26 27 27 27 25 23 20 18 16 16 15 15 16 17 18 17 16 16 15 15 15 14 14 14 13 12 11
19 20 23 24 23 21 22 22 22 24 25 23 23 22 23 24 25 26 26 26 25 24 21 18 16 14 13 12 12 13 14 15 16 15 15 15 15 15 14 14 13 13 12 11
21 23 23 21 21 21 22 22 22 22 22 22 22 22 25 25 27 26 26 23 21 19 18 16 14 13 11 11 10 11 12 13 13 14 14 13 13 12 13 13 12 11 11 10
21 21 20 20 20 21 20 23 20 20 20 21 21 20 23 25 26 25 23 20 19 16 15 14 13 11 10 10 9 10 10 10 11 11 12 12 13 12 13 12 11 10 9 9
22 19 18 19 21 21 21 19 20 19 19 20 21 21 23 25 24 23 19 17 15 14 13 13 12 10 9 9 8 9 9 9 9 9 10 10 11 11 12 12 10 10 9 8
20 18 19 20 20 19 19 19 20 20 19 19 22 22 23 24 23 21 18 16 15 14 13 12 11 10 9 8 8 8 8 7 7 8 8 8 9 9 10 10 9 9 8 7
21 20 19 18 18 18 17 19 19 19 20 20 22 20 22 23 22 21 17 14 14 13 12 11 11 10 9 8 8 7 7 7 7 6 7 7 7 7 8 9 9 9 9 8
19 20 19 18 19 20 20 20 18 17 18 20 20 20 21 23 18 16 15 14 12 12 11 10 10 9 9 8 7 7 6 6 6 6 5 5 5 6 6 7 7 7 8 8
19 19 20 18 18 18 20 17 19 16 16 16 18 20 23 22 17 15 14 13 11 11 10 10 9 8 8 7 7 6 6 5 5 5 4 4 4 4 4 4 5 5 6 6
17 15 18 17 17 17 17 17 17 17 14 15 18 19 21 21 18 15 13 11 10 10 10 10 9 8 7 6 6 5 5 4 4 4 3 4 3 3 3 3 3 3 3 4
15 13 16 17 17 17 17 16 17 17 16 14 15 17 17 16 15 12 10 9 9 9 8 8 8 7 6 6 5 5 4 3 3 3 2 3 2 2 2 2 2 2 2 2
16 14 13 15 17 18 16 15 16 14 14 15 14 14 16 13 11 10 9 8 8 7 7 8 7 6 6 5 5 4 4 3 2 1 2 2 1 1 1 1 1 1 1 2
13 12 11 13 16 12 13 14 15 14 12 12 12 14 12 10 9 7 7 7 7 6 7 7 7 6 6 5 4 4 3 2 1 1 1 1 1 0 0 0 0 0 0 1
11 10 11 11 13 14 12 12 12 11 10 12 13 12 11 11 9 7 7 7 7 7 7 6 7 6 6 5 4 4 3 2 1 0 0 0 -0 -1 -1 -0 1 0 -0 -1
11 9 11 11 12 12 11 11 11 11 12 10 12 12 12 13 13 9 9 8 7 7 7 6 6 5 5 5 4 4 3 2 1 0 -1 -1 -2 -2 -2 -2 -1 -1 -0 -0
11 8 9 8 10 10 10 11 11 11 11 11 11 11 14 11 8 8 8 8 7 7 7 6 6 5 5 4 3 3 2 2 1 0 -1 -1 -2 -3 -3 -4 -4 -4 -3 -2
8 8 7 7 8 8 7 8 10 11 12 12 10 9 5 6 7 7 6 6 6 7 7 6 6 5 5 4 3 2 2 1 -0 -1 -1 -1 -2 -3 -3 -4 -4 -5 -5 -4
6 6 6 6 6 5 9 12 11 10 9 9 6 4 5 6 6 6 7 6 6 6 6 7 6 5 4 3 2 1 0 -1 -2 -2 -3 -3 -3 -3 -4 -5 -6 -6 -6 -5
8 7 5 4 5 7 8 9 9 8 8 8 6 5 6 6 6 6 8 7 6 6 5 5 5 4 3 2 1 -0 -1 -2 -2 -3 -3 -3 -3 -4 -5 -6 -7 -7 -7 -7
6 7 6 5 4 4 8 8 6 6 5 4 3 4 4 4 3 6 7 6 5 5 5 4 4 3 1 0 -1 -2 -3 -3 -4 -4 -4 -5 -5 -6 -6 -7 -8 -8 -8 -8
4 4 4 4 4 5 7 4 6 4 5 4 3 4 4 3 5 5 5 5 5 4 4 3 1 0 -1 -2 -3 -4 -5 -5 -5 -6 -7 -7 -7 -8 -8 -8 -9 -9 -10 -10
5 4 4 3 2 2 5 4 4 6 6 5 5 6 5 5 5 5 5 5 4 4 2 0 -1 -2 -3 -4 -6 -7 -7 -7 -9 -10 -10 -10 -11 -11 -11 -11 -11 -12 -12 -11
3 5 4 4 5 7 5 5 6 6 5 5 5 5 5 5 4 4 4 4 3 0 -2 -4 -5 -6 -7 -8 -9 -9 -10 -11 -12 -13 -14 -14 -15 -14 -14 -14 -14 -13 -13 -13
5 6 4 4 5 5 6 6 6 6 6 6 5 5 4 4 3 2 1 -0 -1 -3 -5 -7 -8 -9 -10 -10 -11 -12 -13 -14 -16 -17 -17 -17 -17 -17 -17 -16 -16 -15 -15 -14
5 5 4 4 5 5 5 5 5 5 5 5 4 3 3 2 1 -0 -2 -4 -5 -6 -8 -9 -11 -11 -12 -13 -14 -15 -16 -17 -18 -18 -18 -18 -18 -17 -17 -17 -17 -17 -17 -16
5 5 4 4 6 5 5 6 6 5 5 4 3 0 -3 -3 -3 -4 -6 -6 -8 -9 -11 -12 -13 -14 -14 -15 -16 -17 -17 -18 -19 -19 -18 -18 -18 -18 -18 -17 -17 -17 -16 -15

GFSCGP_925_temp_027.txt.gz
Temp
17 15 15 16 16 18 19 19 18 18 19 19 18 17 18 19 18 18 15 13 12 11 10 9 8 8 8 9 9 10 12 13 15 15 16 16 16 15 16 16 16 15 15 14
16 15 17 18 18 18 18 18 17 17 19 20 18 17 18 19 18 18 14 12 11 10 9 8 7 7 7 7 7 9 10 11 12 13 13 13 14 13 14 14 15 15 14 14
15 17 18 18 19 18 18 18 17 17 18 18 17 16 18 19 15 14 12 11 10 9 8 8 7 6 6 6 6 6 7 8 9 10 12 12 12 13 12 12 13 14 13 13
16 18 18 17 17 17 17 18 18 19 17 15 17 14 18 18 14 12 11 9 8 8 8 7 7 6 6 6 7 7 6 7 7 8 9 8 8 8 9 9 10 11 11 11
17 17 17 18 18 17 17 17 18 18 16 15 16 13 14 14 13 12 10 9 8 7 7 6 6 6 6 6 6 6 6 6 6 6 7 7 7 7 7 8 9 9 9 9
16 17 18 17 18 18 17 17 16 15 13 12 15 15 15 17 14 12 10 9 8 7 6 6 7 7 6 6 6 6 5 5 5 5 5 5 5 5 6 6 6 6 7 7
17 16 17 18 17 16 16 14 13 12 11 12 14 14 16 17 14 12 9 7 6 6 5 5 5 6 6 5 5 5 5 4 4 4 4 4 4 4 4 4 4 4 4 5
15 16 15 16 17 16 15 15 12 11 12 12 14 13 15 11 10 9 8 7 7 6 6 5 5 6 5 5 5 4 4 3 4 3 3 4 4 3 3 3 3 3 3 3
15 16 16 16 17 16 16 15 15 13 6 9 12 14 12 10 9 8 8 7 6 6 5 5 5 6 5 5 4 4 4 4 3 3 3 2 2 3 2 2 3 3 3 3
15 14 15 15 15 16 15 15 13 11 9 8 12 13 13 10 9 8 7 7 7 6 6 5 5 5 5 4 4 4 3 3 3 3 3 3 3 2 2 2 2 2 2 2
14 13 13 15 14 14 14 13 14 13 11 10 9 12 12 11 9 7 7 6 6 6 6 5 5 5 4 4 3 3 3 3 2 2 2 2 2 2 2 2 2 2 2 2
14 12 8 12 13 13 13 13 13 10 11 9 11 13 11 9 8 8 7 7 6 6 5 4 5 4 4 4 3 3 2 2 2 2 2 1 1 1 1 1 1 1 1 2
12 9 6 9 11 12 13 12 12 12 9 10 10 10 9 9 8 7 7 6 6 4 3 3 3 3 4 3 3 3 3 2 2 1 1 0 -0 -1 -1 -1 -1 -1 -1 -1
12 9 8 10 10 10 9 9 9 10 7 6 7 7 10 10 8 7 6 5 4 4 4 3 2 3 4 4 4 4 4 3 3 2 2 1 1 -0 -1 -1 -1 -2 -2 -2
10 7 8 9 8 8 8 7 8 8 8 7 9 9 10 10 8 8 6 5 4 4 4 3 2 3 4 4 4 4 4 3 3 2 2 1 0 -0 -1 -2 -2 -2 -2 -3
9 5 6 3 7 7 6 7 7 7 7 7 8 8 10 7 7 6 5 5 5 5 5 5 3 4 4 5 4 4 3 3 2 2 1 0 -1 -2 -2 -2 -3 -3 -4 -5
6 4 0 1 5 3 2 5 7 7 7 7 6 6 0 4 5 4 4 5 4 4 4 5 4 4 4 4 3 2 1 1 1 -0 -1 -2 -2 -3 -3 -4 -4 -5 -5 -6
4 1 -1 -3 -2 1 5 6 7 6 6 2 1 -1 -0 2 4 4 4 3 3 3 4 3 3 4 3 2 1 0 -0 -1 -1 -2 -3 -4 -5 -5 -6 -6 -7 -8 -8 -8
5 4 -1 -0 -3 1 5 6 6 6 5 2 2 1 2 3 3 3 4 4 4 4 3 4 3 2 1 -0 -1 -2 -3 -3 -5 -5 -6 -7 -8 -9 -10 -11 -11 -11 -11 -11
3 4 3 -8 -1 -2 3 5 4 4 2 -0 -3 -1 -0 2 -1 -1 3 3 3 4 4 3 2 -0 -1 -3 -3 -4 -5 -7 -8 -8 -9 -10 -11 -12 -13 -14 -14 -14 -14 -14
-4 -5 2 2 0 -2 0 1 4 -0 2 -3 -2 -1 -0 -0 0 1 2 1 3 3 2 0 -1 -2 -4 -4 -5 -6 -8 -9 -10 -11 -13 -14 -14 -15 -16 -16 -16 -17 -17 -16
0 -1 -4 -6 -6 0 3 2 2 3 1 1 1 1 1 1 1 1 1 0 1 1 -2 -2 -3 -5 -6 -7 -8 -10 -11 -11 -13 -14 -15 -16 -16 -16 -17 -17 -18 -18 -18 -18
1 1 -1 0 -1 2 1 3 2 2 0 1 1 1 0 0 1 0 0 -0 -1 -2 -3 -5 -5 -7 -8 -9 -11 -12 -13 -14 -15 -16 -16 -16 -17 -18 -18 -18 -19 -19 -18 -18
1 2 1 0 2 2 3 2 2 2 2 2 1 1 -0 0 0 0 0 -1 -3 -4 -6 -6 -7 -8 -10 -11 -12 -13 -14 -15 -16 -17 -17 -18 -18 -18 -19 -19 -19 -19 -19 -18
3 1 0 1 3 3 3 2 3 2 1 1 1 0 0 -1 -0 -0 -1 -5 -5 -6 -8 -8 -9 -11 -12 -13 -14 -14 -15 -16 -17 -17 -18 -18 -19 -19 -19 -19 -19 -19 -18 -18
3 3 3 2 4 3 4 4 3 1 1 1 0 -0 -1 -1 -1 -3 -6 -5 -7 -8 -10 -11 -12 -13 -13 -14 -15 -15 -16 -17 -17 -18 -19 -19 -19 -19 -19 -19 -19 -18 -17 -16

GFSCGP_925_temp_030.txt.gz
Temp
17 15 15 16 15 18 18 18 17 17 18 18 17 17 17 17 17 13 10 9 9 8 7 7 6 6 7 7 8 9 11 11 13 14 14 14 13 14 14 14 14 14 14 14
15 15 16 17 16 16 16 16 16 16 17 18 17 17 17 16 14 12 10 9 8 7 6 6 6 6 5 6 6 7 8 9 11 11 11 11 11 11 11 11 12 12 12 12
14 17 16 17 17 17 16 16 17 17 16 17 16 15 16 12 11 11 9 8 7 6 6 5 5 5 5 5 5 5 6 7 8 10 11 12 11 11 11 10 10 10 10 10
15 16 17 17 17 17 16 16 16 16 16 15 16 13 15 15 11 9 8 6 6 5 5 5 5 4 4 5 6 6 6 6 6 7 7 7 6 5 5 7 8 9 9 9
16 17 16 17 16 16 17 16 17 17 16 15 14 13 13 12 11 9 7 6 6 5 5 4 4 4 5 5 5 5 6 6 6 6 6 5 5 4 5 6 7 7 7 8
15 16 16 17 17 17 16 17 13 12 12 12 13 13 14 14 13 9 7 6 6 5 4 5 5 5 5 5 5 5 5 5 5 5 5 5 5 4 4 4 4 4 5 5
16 16 17 17 17 16 15 14 13 12 10 12 13 12 14 10 12 10 7 6 5 4 4 3 4 4 4 4 5 5 5 4 5 5 5 4 4 3 3 3 3 3 3 3
14 15 15 15 16 15 14 14 12 11 11 12 12 13 13 8 7 7 6 5 5 5 4 4 4 4 4 4 4 4 4 3 4 4 4 4 4 3 3 2 3 2 2 2
13 15 15 15 16 16 15 14 14 12 3 8 12 11 10 8 7 6 6 6 5 5 4 4 4 4 4 4 4 4 4 4 3 3 3 3 2 2 2 2 2 2 2 2
15 15 15 15 15 14 14 14 12 10 9 9 11 11 12 8 7 7 6 6 5 5 4 4 4 4 4 4 4 4 4 4 3 3 3 3 2 2 2 2 1 1 1 2
13 14 13 14 13 13 13 13 13 12 9 8 7 11 12 10 8 7 7 6 5 5 4 3 4 4 4 4 4 4 3 4 4 4 3 3 2 2 2 2 1 1 1 1
13 11 8 12 13 13 14 12 12 9 10 8 9 13 11 10 8 7 7 6 5 5 4 3 4 4 4 4 3 3 3 3 2 2 2 2 1 1 1 1 1 1 0 1
12 9 5 9 11 12 12 11 11 9 7 6 9 10 9 8 7 6 7 5 5 4 2 2 2 3 3 3 3 3 3 3 2 2 1 1 1 0 -0 -1 -1 -1 -1 -1
11 8 8 11 10 10 10 9 9 10 6 7 9 8 9 8 7 6 6 5 4 3 2 1 1 2 3 3 3 3 3 2 2 2 2 1 1 -0 -1 -1 -2 -2 -3 -3
11 10 8 9 9 9 8 8 8 8 8 7 10 8 10 9 8 6 6 5 3 3 2 1 1 2 3 3 3 3 3 3 2 2 1 1 -0 -1 -1 -2 -3 -4 -5 -5
8 6 6 5 7 7 7 8 7 7 8 7 8 8 9 7 7 6 5 4 3 3 3 2 2 2 3 3 4 4 3 3 2 1 0 -0 -0 -1 -2 -3 -4 -5 -5 -6
7 4 2 4 4 3 2 4 7 8 7 7 6 7 1 5 5 4 3 3 3 3 3 3 2 3 4 4 4 3 2 1 0 -0 -1 -1 -2 -4 -5 -6 -6 -7 -8 -9
4 3 2 0 -2 0 6 5 6 6 6 2 1 -1 0 3 3 3 2 3 3 2 2 2 3 3 4 3 2 1 -0 -1 -2 -2 -3 -4 -5 -7 -7 -8 -9 -10 -11 -12
5 4 1 2 -2 2 6 5 4 4 4 2 2 1 3 2 3 2 2 2 2 2 3 4 4 3 2 1 -0 -1 -2 -2 -3 -4 -6 -8 -9 -9 -10 -11 -12 -13 -14 -14
3 5 4 -6 -3 -1 4 5 3 4 1 -2 -2 0 -1 1 -1 0 1 2 2 3 4 3 3 1 -0 -2 -3 -3 -4 -5 -6 -8 -9 -10 -11 -12 -13 -14 -14 -15 -16 -16
-2 1 3 2 -4 -2 0 1 4 0 3 -3 -2 -0 -1 -0 2 1 1 1 3 3 3 2 1 -1 -2 -4 -5 -6 -7 -8 -10 -11 -11 -11 -12 -13 -14 -15 -16 -16 -17 -18
-0 -1 -2 -3 -1 -1 1 2 2 3 1 1 -0 1 1 1 1 1 -0 -1 0 0 0 -1 -2 -4 -5 -6 -6 -7 -8 -10 -11 -12 -13 -13 -14 -14 -15 -16 -17 -17 -19 -19
2 1 -2 -0 -0 3 1 3 3 2 1 1 1 1 1 1 0 0 -0 -1 -0 1 -1 -3 -3 -6 -7 -8 -8 -9 -11 -12 -13 -14 -14 -14 -15 -15 -16 -17 -17 -19 -19 -19
1 1 1 -0 1 2 2 3 2 1 1 2 1 1 -0 0 0 1 -0 -1 -1 -1 -4 -4 -6 -8 -9 -10 -11 -11 -12 -13 -14 -15 -15 -15 -16 -17 -17 -18 -18 -19 -19 -19
1 0 -1 -0 2 2 1 1 2 3 0 1 0 0 0 -1 0 -0 -1 -3 -2 -4 -5 -6 -8 -9 -10 -12 -12 -12 -14 -15 -15 -16 -15 -16 -17 -18 -18 -19 -19 -19 -18 -18
2 4 2 2 4 4 4 3 2 1 1 1 0 -0 -2 -2 -1 -2 -3 -2 -3 -6 -8 -9 -10 -10 -12 -12 -12 -13 -15 -16 -16 -17 -17 -18 -18 -19 -19 -19 -19 -18 -17 -16

GFSCGP_925_temp_036.txt.gz
Temp
15 15 14 14 15 17 16 16 17 16 17 18 16 15 16 11 7 6 6 5 5 4 5 4 5 6 7 9 10 11 12 12 13 13 11 11 9 9 9 10 10 10 11 11
14 14 15 16 15 16 16 16 15 15 15 15 16 15 12 9 8 7 6 5 5 5 4 4 4 5 5 5 7 9 9 11 11 12 10 10 9 8 8 8 9 9 9 9
14 17 15 16 15 14 14 14 15 16 16 15 15 14 12 8 7 6 6 5 5 4 4 3 3 4 5 5 7 7 9 9 10 10 11 10 10 9 8 7 7 7 7 8
13 15 16 14 14 14 15 14 15 15 15 14 14 14 14 9 7 6 5 4 4 4 4 3 3 3 3 4 6 7 8 8 9 10 11 9 6 3 3 4 5 5 5 5
15 14 14 14 14 15 15 14 13 14 13 14 14 12 12 9 8 6 5 4 3 3 3 2 2 3 3 4 4 5 6 6 6 7 7 6 4 4 4 4 5 5 5 5
14 15 14 15 14 14 12 13 11 10 11 11 12 13 13 10 11 7 5 4 3 3 2 3 3 3 3 4 4 5 5 5 5 6 5 5 5 4 4 4 4 3 4 4
14 14 15 15 14 14 14 13 13 12 10 12 11 11 12 11 9 8 6 4 3 3 2 1 2 2 3 3 4 4 4 3 4 4 4 4 4 4 3 3 2 3 3 2
12 14 14 14 15 14 12 14 12 12 11 11 11 11 13 8 6 6 6 5 3 3 2 2 2 2 3 3 3 3 3 3 3 4 3 3 3 3 2 2 2 1 1 1
12 15 14 14 14 15 13 13 13 10 1 7 11 12 10 7 6 4 4 3 3 3 2 2 2 3 3 3 3 4 3 3 3 3 2 2 2 2 2 1 1 1 1 1
14 15 13 13 14 13 14 12 13 10 10 8 11 11 13 8 6 5 4 4 3 3 2 2 2 3 3 3 3 3 3 3 2 2 2 2 2 2 2 1 1 1 1 1
12 14 12 13 12 12 12 12 11 11 10 10 8 11 9 10 7 5 5 5 4 3 2 2 3 3 3 3 3 3 3 3 3 2 2 2 2 1 1 1 1 0 0 0
13 12 9 12 11 10 12 12 11 13 11 6 8 13 7 8 7 6 6 5 4 3 3 2 3 3 3 3 3 3 3 3 3 3 2 2 1 1 1 1 0 0 -0 -1
12 10 7 10 12 10 10 10 10 9 7 6 9 11 8 7 6 5 5 4 4 4 3 2 2 2 2 3 3 3 3 3 3 2 2 1 1 1 0 -0 -1 -1 -1 -1
13 9 10 13 12 10 10 9 9 9 7 8 12 12 10 8 7 5 6 5 5 4 3 1 0 1 2 3 3 3 3 3 3 2 2 1 0 -0 -0 -1 -1 -1 -1 -1
12 10 9 10 10 10 10 10 8 9 11 11 13 11 9 9 8 7 6 5 4 4 2 1 0 1 2 2 3 3 3 3 3 2 1 0 -0 -1 -1 -1 -1 -2 -2 -2
8 8 7 6 8 7 7 8 7 9 8 8 9 9 9 9 7 6 5 5 5 4 2 1 1 1 2 2 3 4 4 3 2 1 1 -0 -1 -1 -1 -1 -2 -2 -3 -3
8 6 7 9 4 6 8 8 7 7 7 9 9 10 4 6 5 5 4 3 3 3 2 1 1 1 2 3 4 4 4 3 1 1 -0 -1 -2 -2 -2 -2 -2 -3 -4 -5
6 5 7 3 4 8 10 4 5 8 8 5 4 2 3 4 4 4 2 2 2 2 2 1 2 3 4 4 4 4 2 2 1 -0 -1 -2 -2 -2 -2 -3 -4 -5 -6 -7
5 6 4 5 5 6 7 4 4 6 7 4 6 6 4 3 3 3 1 0 1 0 2 3 5 5 5 4 4 3 2 1 -1 -1 -2 -3 -2 -2 -3 -4 -5 -6 -7 -8
4 5 9 2 5 6 6 4 3 6 6 1 3 3 1 2 1 2 2 1 0 2 3 4 4 4 4 4 3 2 1 -1 -2 -2 -3 -3 -3 -4 -4 -5 -7 -9 -10 -11
3 3 7 3 5 3 2 1 3 4 6 -3 -1 -1 -1 0 2 3 3 1 3 3 4 4 4 4 4 3 2 0 -1 -2 -2 -4 -4 -4 -5 -5 -6 -8 -9 -10 -11 -12
3 4 3 2 3 5 1 2 4 4 1 0 0 1 1 2 3 1 1 1 0 1 3 3 3 3 4 2 0 -1 -2 -2 -4 -5 -5 -6 -7 -7 -8 -10 -10 -12 -13 -14
5 4 3 4 4 2 2 4 2 3 1 1 1 1 1 1 1 1 0 -1 -0 1 3 3 2 2 2 1 -0 -2 -3 -5 -5 -6 -7 -7 -8 -9 -10 -11 -12 -13 -14 -16
1 1 2 3 2 2 2 2 2 2 2 2 1 1 -0 0 0 1 -0 -1 -1 1 1 3 0 -1 -0 -1 -2 -3 -4 -6 -7 -7 -8 -9 -10 -11 -12 -13 -13 -14 -15 -16
2 1 -1 0 2 2 2 2 3 2 1 1 0 0 0 -1 -0 -0 -1 -3 -2 -0 1 0 -0 -2 -1 -2 -4 -6 -6 -7 -8 -9 -10 -11 -12 -13 -13 -14 -14 -15 -15 -17
1 2 2 1 3 4 4 3 3 1 1 1 0 -0 -2 -2 -2 -2 -3 -1 -1 -1 -0 -2 -2 -3 -3 -5 -6 -8 -8 -8 -9 -11 -12 -13 -14 -14 -15 -15 -15 -14 -16 -15

GFSCGP_925_temp_042.txt.gz
Temp
18 21 21 23 23 22 22 22 22 21 20 20 22 23 22 17 15 15 14 13 12 11 8 7 6 6 7 7 8 8 9 8 9 10 9 8 7 6 5 6 7 7 6 7
18 20 22 19 19 20 20 21 22 20 19 19 21 21 22 16 16 15 14 13 12 10 10 8 7 6 6 6 6 7 7 7 7 7 7 6 5 4 4 5 7 7 8 8
21 21 18 19 17 18 19 20 22 21 18 17 18 20 21 14 12 12 12 12 12 12 10 9 7 7 6 6 6 7 8 8 7 8 8 7 6 6 5 4 5 6 7 6
19 18 17 18 19 19 20 19 19 18 19 20 17 21 20 17 13 11 11 11 11 10 9 8 7 7 5 4 4 5 7 9 9 10 8 7 7 5 4 3 3 5 5 6
20 16 17 18 19 18 20 17 18 18 18 17 18 19 22 14 15 12 11 11 11 11 10 8 7 5 4 4 4 4 6 7 7 8 7 6 4 3 3 2 3 4 4 4
18 15 17 19 15 17 14 16 15 15 17 17 19 19 22 18 17 16 12 11 11 9 9 7 5 4 4 3 3 4 6 6 6 7 6 5 4 3 3 2 2 1 1 2
16 16 15 15 16 14 16 18 18 17 16 17 14 16 22 20 15 15 12 11 10 9 8 7 6 5 4 3 3 3 4 4 5 6 5 4 3 3 2 2 2 2 1 2
17 17 16 16 18 17 15 19 18 17 16 18 12 16 19 14 11 11 13 11 10 9 8 7 6 5 4 3 3 3 3 3 3 4 4 3 3 2 2 2 1 1 1 1
16 17 14 14 14 17 15 16 17 13 7 15 19 17 17 10 10 9 10 10 9 8 8 7 6 5 4 3 3 3 3 2 2 3 2 3 3 3 2 2 1 0 0 1
18 17 13 13 15 14 16 17 15 16 16 17 17 16 21 13 13 10 9 9 9 9 8 7 6 5 4 4 3 2 2 2 2 2 2 2 2 2 2 1 1 1 1 0
16 16 13 14 15 17 14 15 15 17 16 17 18 19 18 18 15 11 11 10 10 9 8 8 6 5 4 3 3 2 2 1 1 1 1 1 1 1 1 1 0 0 0 0
16 14 14 14 13 12 16 17 17 18 14 14 15 19 13 14 14 13 12 10 10 9 9 8 7 5 4 3 3 2 2 1 1 0 1 1 1 1 -0 -0 0 0 0 0
15 13 14 14 13 11 13 14 15 17 13 14 16 19 11 10 11 11 12 10 9 9 9 8 7 6 5 4 3 2 2 1 1 0 0 0 -0 -1 -1 -0 -0 -0 -0 -0
16 14 14 17 18 17 13 14 14 15 16 17 16 18 13 12 12 10 10 10 10 9 9 8 7 6 6 4 3 3 2 1 0 0 -0 -0 -1 -1 -1 -0 -0 -1 -1 -1
15 13 14 16 17 15 15 15 14 15 17 17 19 16 16 15 13 13 12 11 10 9 9 9 8 7 6 4 3 3 3 1 1 1 -0 -0 -1 -1 -1 -1 -1 -1 -1 -2
11 13 14 13 14 12 13 14 14 15 16 17 17 16 17 15 13 12 11 10 9 9 9 8 7 6 5 4 4 3 2 1 1 0 -0 -0 -1 -1 -0 -1 -1 -2 -2 -3
11 12 10 12 13 10 10 11 13 14 16 16 16 16 11 11 11 11 11 10 10 9 8 8 7 6 4 4 3 2 2 2 1 1 1 1 0 -0 -1 -2 -2 -3 -3 -3
9 9 9 10 8 11 12 9 14 13 12 11 9 8 10 11 10 10 10 10 9 8 8 7 6 6 4 4 3 2 2 1 2 2 1 1 -0 -1 -2 -2 -3 -3 -3 -5
7 9 7 9 10 12 7 8 10 11 12 9 10 8 7 6 8 9 7 7 8 7 7 6 6 5 4 4 3 2 2 2 2 2 1 1 0 -1 -2 -3 -3 -4 -5 -6
4 6 9 7 10 12 13 8 7 10 12 7 8 6 5 6 10 11 6 5 5 5 5 5 5 5 4 4 4 3 3 2 2 2 2 2 0 -1 -2 -3 -4 -5 -5 -7
6 6 9 8 9 9 7 5 6 10 11 5 6 5 4 7 9 7 5 4 5 5 5 5 4 5 6 5 4 3 3 2 4 3 2 1 -0 -2 -3 -5 -5 -6 -7 -8
8 8 8 7 9 10 5 5 9 8 4 5 5 4 5 5 5 5 4 4 3 3 3 4 3 4 5 4 4 3 2 5 4 2 1 -0 -2 -3 -5 -6 -6 -7 -8 -9
8 9 8 9 9 4 6 6 5 5 6 4 5 4 5 5 4 4 4 3 2 3 3 3 3 3 3 3 3 2 5 3 2 0 -1 -2 -4 -5 -6 -7 -8 -9 -9 -10
4 4 7 7 4 4 5 3 4 4 5 4 5 4 4 4 4 3 3 2 2 2 2 3 2 1 1 2 2 2 2 1 0 -1 -3 -4 -6 -7 -8 -8 -9 -9 -10 -12
5 4 3 3 3 4 4 4 4 4 3 3 2 3 4 3 2 2 1 0 1 2 3 2 1 1 1 1 1 1 0 -1 -2 -4 -5 -7 -8 -9 -9 -9 -10 -10 -10 -10
4 4 6 6 6 7 7 6 4 4 3 3 2 1 0 1 2 1 0 1 1 1 1 -1 -1 -1 -0 -1 -1 -1 -2 -3 -5 -6 -8 -9 -9 -10 -11 -12 -11 -10 -11 -13

GFSCGP_925_temp_045.txt.gz
Temp
21 22 22 24 24 25 25 25 25 26 24 22 24 25 26 22 20 21 20 18 17 15 12 11 10 10 10 9 8 8 9 10 10 10 10 10 9 7 6 6 6 8 7 8
20 21 24 25 24 24 23 23 24 25 22 21 23 24 25 25 21 21 20 19 17 14 13 11 10 10 10 10 9 9 10 10 11 10 9 9 7 6 6 5 6 7 8 7
22 23 22 21 21 21 22 23 24 24 21 20 21 21 22 24 22 19 19 18 17 15 13 12 11 10 10 9 9 9 9 9 9 8 8 7 7 7 6 5 5 5 5 5
21 23 20 20 21 22 22 24 22 22 21 22 21 21 24 25 19 17 16 16 16 15 14 12 11 10 9 8 8 8 8 8 9 9 9 10 9 7 5 4 4 5 6 5
22 19 19 20 21 22 22 21 21 21 20 20 21 19 23 23 21 18 15 15 15 14 13 12 11 9 8 7 7 7 7 7 7 7 8 7 6 5 5 3 4 4 5 6
21 18 20 21 18 20 19 19 18 18 19 18 21 21 22 23 20 20 15 14 14 13 12 11 9 8 7 5 6 6 6 6 6 6 6 6 5 5 4 4 3 3 2 2
19 19 19 18 18 16 18 19 19 18 17 18 19 21 22 24 19 21 15 14 14 13 12 11 9 8 7 6 6 6 6 5 5 5 5 5 5 5 4 4 3 3 2 1
20 20 19 18 20 20 17 19 19 17 19 20 14 18 21 20 18 15 16 15 14 12 12 10 9 8 7 6 5 5 5 4 4 4 4 4 4 4 4 3 3 2 2 2
20 21 18 18 19 20 17 17 20 16 11 15 20 19 21 14 13 13 15 14 13 12 11 10 9 8 7 5 5 5 5 4 4 3 3 3 3 3 2 2 2 2 2 2
21 20 17 16 16 17 18 19 16 17 15 17 21 21 22 14 14 13 14 13 12 11 11 10 9 8 7 6 5 5 4 4 3 3 3 3 2 2 2 2 2 2 2 2
19 19 15 15 15 17 15 16 17 18 18 18 20 21 22 21 17 13 13 13 12 11 11 10 9 8 7 6 5 4 4 3 3 2 2 2 2 2 2 2 2 2 1 1
18 18 18 17 18 17 19 18 18 17 16 17 17 20 17 19 19 16 13 12 12 12 11 10 9 8 6 6 5 4 4 3 2 2 2 2 1 1 1 1 1 1 0 0
17 14 14 15 14 13 14 16 18 18 14 15 17 20 15 14 15 16 15 13 13 12 11 10 9 8 7 6 5 4 4 3 2 2 2 1 1 0 0 0 0 -0 -0 -0
16 13 14 18 20 19 15 15 16 16 15 17 18 19 15 15 15 14 15 13 13 12 11 10 10 8 7 6 5 5 4 3 2 2 1 1 1 0 0 -0 -0 -0 -1 -1
15 12 13 15 18 19 16 16 15 15 17 17 19 19 21 17 16 16 15 14 12 11 11 11 10 9 7 7 6 5 5 3 2 2 1 1 1 0 -0 -1 -1 -1 -1 -2
12 11 13 13 15 15 15 16 16 16 16 17 19 20 22 21 18 17 15 14 12 11 11 11 10 9 8 7 6 5 5 4 2 2 1 1 0 -0 -1 -1 -1 -1 -2 -2
10 10 10 13 13 13 11 12 15 17 17 18 17 18 14 16 15 14 13 13 12 12 11 10 10 9 8 7 6 5 5 4 2 1 1 1 0 -0 -1 -1 -1 -2 -2 -3
9 9 10 12 11 13 15 17 15 16 17 16 16 10 11 12 13 12 13 12 11 11 11 10 9 9 7 6 5 5 4 3 2 1 0 1 0 -0 -1 -1 -2 -3 -3 -4
8 10 10 12 12 15 16 10 13 14 15 16 14 10 9 8 10 11 11 11 11 10 10 9 8 8 6 5 5 4 3 2 1 0 -0 1 1 -0 -1 -1 -2 -3 -4 -5
5 7 9 9 12 13 14 13 12 14 12 11 10 9 7 9 10 12 8 6 7 7 7 6 6 6 5 4 4 3 2 1 1 1 2 1 1 0 0 -0 -2 -3 -4 -5
6 7 9 11 11 11 8 7 10 12 12 6 8 8 7 10 11 8 7 6 6 5 5 5 5 5 6 5 4 2 1 1 4 3 2 1 1 1 -0 -2 -3 -4 -5 -6
9 9 9 10 10 11 8 7 12 10 7 7 8 8 8 8 7 6 6 5 5 4 3 4 4 5 5 4 4 2 2 6 4 3 2 1 0 -1 -2 -3 -4 -5 -6 -7
9 10 10 10 10 5 7 6 6 6 7 6 7 7 8 7 7 6 5 4 4 4 4 4 5 5 4 4 3 2 5 4 4 2 1 0 -1 -3 -3 -4 -6 -7 -8 -9
6 6 8 7 3 4 4 4 4 5 7 6 6 5 6 6 5 4 3 3 2 3 3 4 3 3 3 3 3 3 3 2 2 1 -0 -2 -3 -4 -5 -6 -7 -8 -9 -9
6 6 5 3 4 3 2 2 5 6 5 4 4 4 5 5 3 3 2 1 1 3 3 3 2 2 3 2 2 2 1 1 0 -1 -2 -4 -5 -6 -7 -7 -7 -8 -8 -8
5 6 7 7 5 6 5 6 6 5 4 4 4 2 2 3 3 2 1 2 2 2 2 1 2 2 2 1 0 -0 -1 -1 -2 -3 -5 -6 -7 -9 -9 -10 -10 -10 -10 -11

GFSCGP_925_temp_048.txt.gz
Temp
20 19 18 21 21 22 23 22 22 24 21 21 20 20 22 19 18 17 17 16 14 14 12 11 10 10 9 9 8 9 9 9 10 10 9 9 8 8 8 8 8 8 8 8
18 17 20 22 22 22 21 21 20 22 20 20 20 20 22 20 18 18 18 16 14 11 10 11 10 10 10 9 9 9 10 10 11 10 9 9 8 7 6 6 7 7 8 8
19 21 21 21 21 21 21 20 20 21 20 20 18 18 19 21 20 19 18 17 15 12 10 9 10 10 10 10 10 10 10 10 10 10 9 8 7 6 6 6 6 6 7 7
19 21 20 20 20 20 19 22 21 21 20 18 18 17 20 20 20 18 16 15 13 12 11 10 10 10 10 9 9 9 9 9 9 9 9 8 7 5 5 5 5 6 7 7
20 19 18 19 20 20 20 20 21 20 18 17 18 17 19 20 21 18 15 13 13 11 11 9 9 9 8 8 8 8 8 8 9 9 9 9 7 5 5 5 5 5 5 6
19 18 19 20 17 19 18 18 18 18 17 14 17 18 18 20 20 20 15 13 12 11 9 9 9 8 7 7 7 7 7 7 8 9 9 8 6 5 4 4 4 5 5 5
17 17 18 18 16 17 18 17 16 14 14 14 18 17 19 20 20 20 16 14 12 11 10 8 7 7 6 6 6 6 7 6 7 7 7 7 6 6 6 5 5 4 3 3
17 17 17 16 18 17 15 17 14 15 14 15 14 14 17 15 14 16 15 13 12 10 10 8 7 7 6 6 6 6 6 6 6 6 6 6 6 6 5 5 4 3 3 3
19 19 17 17 18 18 16 15 19 15 9 11 15 16 19 14 13 14 13 12 12 10 9 8 7 7 6 6 6 6 5 5 6 6 6 5 5 5 4 3 3 3 3 3
20 19 17 14 16 17 16 17 14 14 12 13 16 16 18 13 13 11 12 12 12 11 10 8 7 7 6 6 5 5 5 5 5 5 5 5 5 4 3 3 3 3 3 3
18 18 14 14 14 15 14 15 16 16 14 13 14 17 20 19 15 12 13 13 12 11 10 8 8 7 6 6 5 5 5 5 4 4 4 4 3 3 3 3 3 3 3 3
17 17 12 13 16 16 17 16 16 16 14 14 13 18 17 17 15 13 13 13 12 10 9 8 8 6 6 5 5 5 4 4 4 4 3 3 3 3 3 2 3 3 3 2
16 14 13 14 14 13 14 15 17 17 13 16 14 17 13 13 14 12 12 11 11 10 9 8 7 6 6 5 4 4 4 4 3 3 3 2 2 2 2 2 2 2 2 2
16 13 15 17 18 14 13 14 15 16 14 14 16 17 15 14 13 12 11 11 10 10 9 8 7 7 6 5 4 4 4 4 3 3 3 2 2 2 2 2 2 2 2 1
15 14 14 15 17 16 14 13 14 14 16 15 17 17 18 17 13 13 13 11 10 10 9 8 8 7 6 5 4 4 3 3 3 3 2 2 2 2 1 1 1 1 1 0
12 12 13 13 13 14 14 13 13 14 15 16 17 17 18 18 15 12 12 11 10 10 10 9 8 7 6 5 5 4 4 3 3 3 3 2 2 1 1 1 1 1 -0 -1
10 10 10 13 12 12 12 12 14 14 15 15 14 17 16 17 14 12 11 11 10 10 10 9 8 8 7 6 5 4 4 4 3 3 2 2 1 1 1 0 0 -0 -1 -1
9 9 10 12 12 13 15 14 14 14 15 15 15 12 10 14 14 12 12 11 10 10 9 9 9 8 7 6 6 5 5 4 3 3 2 2 1 1 1 0 -0 -1 -1 -1
10 9 11 12 13 14 14 10 11 13 14 14 14 15 9 9 11 11 11 10 9 8 8 9 9 8 7 7 6 6 5 4 3 2 2 2 1 1 0 -0 -0 -1 -1 -2
6 9 10 10 12 13 10 9 10 13 12 10 12 12 7 8 11 9 7 7 7 8 8 8 9 8 7 6 6 5 4 4 3 2 2 2 1 1 1 0 -0 -1 -1 -2
6 7 9 11 11 10 6 6 9 11 11 4 5 6 7 9 10 8 5 6 5 6 6 7 7 6 6 5 5 4 3 3 4 3 2 1 1 1 1 0 -1 -1 -2 -3
8 8 8 9 10 11 7 8 10 7 5 5 7 6 7 5 5 4 4 2 2 2 3 5 4 4 4 4 4 3 3 5 4 3 2 1 1 1 -0 -1 -2 -3 -3 -4
9 9 9 10 10 5 5 5 6 6 5 7 7 6 5 4 5 3 2 2 1 2 3 4 4 3 3 4 4 4 5 3 3 2 1 1 0 -0 -1 -2 -3 -4 -5 -6
5 6 7 7 4 4 4 4 4 6 6 6 6 5 4 4 3 3 1 1 1 1 1 3 3 3 3 3 4 4 4 3 2 1 0 -0 -1 -2 -3 -3 -4 -5 -6 -7
5 5 4 2 3 2 3 2 3 5 5 5 4 4 4 2 2 2 -0 -1 -0 1 2 4 5 6 5 4 3 2 2 1 1 0 -1 -2 -2 -3 -4 -5 -5 -6 -6 -7
4 5 6 6 4 5 5 4 3 3 5 3 3 2 2 2 2 1 -1 1 1 2 2 3 3 3 2 1 -0 -1 -1 -1 -1 -1 -3 -4 -4 -5 -7 -7 -8 -9 -10 -10